When you browse on this site, cookies collect data to enhance your experience and personalize the content and advertising you see.
Visit our Privacy Policy to learn more. By continuing to use the site, you agree to this use of cookies and data.
  • In Lithuania
  • List of Countries
  • For 7 days
  • Water Temperature
  • Satellite Maps
  • Weather Map
  • Weather Widgets
  • user-avatar
    Login

    Hourly Weather Shkoder

    Today, 22 July, Monday

    Time Temperature Precipitation Wind Pressure Humidity
    00:00 +25°C° 0 mm 1 mps 743 mmHg 58%
    01:00 +24°C° 0 mm 2 mps 743 mmHg 58%
    02:00 +24°C° 0 mm 2 mps 743 mmHg 58%
    03:00 +24°C° 0 mm 2 mps 743 mmHg 59%
    04:00 +24°C° 0 mm 2 mps 743 mmHg 59%
    05:00 +25°C° 0 mm 2 mps 743 mmHg 56%
    06:00 +27°C° 0 mm 1 mps 743 mmHg 54%
    07:00 +29°C° 0 mm 1 mps 743 mmHg 51%
    08:00 +31°C° 0 mm 1 mps 743 mmHg 46%
    09:00 +32°C° 0 mm 2 mps 743 mmHg 41%
    10:00 +35°C° 0 mm 2 mps 743 mmHg 35%
    11:00 +35°C° 0 mm 2 mps 743 mmHg 33%
    12:00 +36°C° 0 mm 2 mps 743 mmHg 32%
    13:00 +37°C° 0 mm 2 mps 743 mmHg 30%
    14:00 +36°C° 0.1 mm 2 mps 743 mmHg 32%
    15:00 +35°C° 0.1 mm 2 mps 743 mmHg 35%
    16:00 +34°C° 0.1 mm 2 mps 742 mmHg 38%
    17:00 +31°C° 0.6 mm 3 mps 742 mmHg 48%
    18:00 +28°C° 0.6 mm 3 mps 742 mmHg 58%
    19:00 +26°C° 0.6 mm 4 mps 742 mmHg 68%
    20:00 +25°C° 0.1 mm 3 mps 742 mmHg 70%
    21:00 +24°C° 0.1 mm 3 mps 742 mmHg 73%
    22:00 +22°C° 0.1 mm 3 mps 743 mmHg 76%
    23:00 +21°C° 0 mm 3 mps 742 mmHg 76%

    Tomorrow, 23 July, Tuesday

    Time Temperature Precipitation Wind Pressure Humidity
    00:00 +21°C° 0 mm 3 mps 742 mmHg 76%
    01:00 +21°C° 0 mm 3 mps 742 mmHg 76%
    02:00 +21°C° 0 mm 3 mps 742 mmHg 76%
    03:00 +21°C° 0 mm 3 mps 742 mmHg 76%
    04:00 +21°C° 0 mm 3 mps 741 mmHg 77%
    05:00 +22°C° 0 mm 3 mps 741 mmHg 71%
    06:00 +24°C° 0 mm 3 mps 741 mmHg 66%
    07:00 +26°C° 0 mm 3 mps 741 mmHg 61%
    08:00 +27°C° 0 mm 3 mps 741 mmHg 54%
    09:00 +29°C° 0 mm 3 mps 741 mmHg 47%
    10:00 +31°C° 0 mm 3 mps 741 mmHg 41%
    11:00 +31°C° 0 mm 3 mps 741 mmHg 38%
    12:00 +33°C° 0 mm 3 mps 741 mmHg 35%
    13:00 +34°C° 0 mm 3 mps 740 mmHg 32%
    14:00 +34°C° 0 mm 3 mps 740 mmHg 32%
    15:00 +34°C° 0 mm 3 mps 740 mmHg 32%
    16:00 +34°C° 0 mm 3 mps 740 mmHg 33%
    17:00 +31°C° 0 mm 3 mps 740 mmHg 38%
    18:00 +29°C° 0 mm 3 mps 740 mmHg 44%
    19:00 +27°C° 0 mm 3 mps 740 mmHg 49%
    20:00 +26°C° 0 mm 3 mps 740 mmHg 52%
    21:00 +25°C° 0 mm 3 mps 740 mmHg 56%
    22:00 +24°C° 0 mm 3 mps 740 mmHg 59%
    23:00 +24°C° 0 mm 3 mps 740 mmHg 62%

    Day after tomorrow, 24 July, Wednesday

    Time Temperature Precipitation Wind Pressure Humidity
    00:00 +22°C° 0 mm 3 mps 740 mmHg 65%
    01:00 +21°C° 0 mm 3 mps 740 mmHg 68%
    02:00 +21°C° 0 mm 3 mps 740 mmHg 69%
    03:00 +21°C° 0 mm 3 mps 739 mmHg 71%
    04:00 +20°C° 0 mm 3 mps 739 mmHg 72%
    05:00 +22°C° 0 mm 3 mps 739 mmHg 67%
    06:00 +25°C° 0 mm 3 mps 739 mmHg 63%
    07:00 +26°C° 0 mm 3 mps 739 mmHg 58%
    08:00 +28°C° 0 mm 3 mps 739 mmHg 53%
    09:00 +29°C° 0 mm 3 mps 740 mmHg 48%
    10:00 +31°C° 0 mm 3 mps 740 mmHg 44%
    11:00 +33°C° 0 mm 3 mps 739 mmHg 42%
    12:00 +34°C° 0 mm 3 mps 739 mmHg 40%
    13:00 +35°C° 0 mm 3 mps 739 mmHg 38%
    14:00 +34°C° 0 mm 3 mps 739 mmHg 40%
    15:00 +34°C° 0 mm 3 mps 739 mmHg 41%
    16:00 +34°C° 0 mm 3 mps 739 mmHg 42%
    17:00 +31°C° 0 mm 3 mps 739 mmHg 46%
    18:00 +30°C° 0 mm 3 mps 739 mmHg 50%
    19:00 +28°C° 0 mm 3 mps 739 mmHg 54%
    20:00 +27°C° 0 mm 3 mps 739 mmHg 56%
    21:00 +26°C° 0 mm 3 mps 740 mmHg 59%
    22:00 +25°C° 0 mm 3 mps 740 mmHg 61%
    23:00 +24°C° 0 mm 3 mps 740 mmHg 64%

    25 July, Thursday

    Time Temperature Precipitation Wind Pressure Humidity
    00:00 +24°C° 0 mm 3 mps 740 mmHg 67%
    01:00 +22°C° 0 mm 3 mps 740 mmHg 69%
    02:00 +21°C° 0 mm 3 mps 740 mmHg 71%
    03:00 +21°C° 0 mm 3 mps 740 mmHg 72%
    04:00 +21°C° 0 mm 3 mps 740 mmHg 74%
    05:00 +22°C° 0 mm 3 mps 740 mmHg 69%
    06:00 +25°C° 0 mm 3 mps 740 mmHg 64%
    07:00 +26°C° 0 mm 3 mps 741 mmHg 60%
    08:00 +28°C° 0 mm 3 mps 741 mmHg 54%
    09:00 +29°C° 0 mm 3 mps 741 mmHg 48%
    10:00 +31°C° 0 mm 3 mps 741 mmHg 42%
    11:00 +33°C° 0 mm 3 mps 741 mmHg 39%
    12:00 +34°C° 0 mm 3 mps 740 mmHg 36%
    13:00 +35°C° 0 mm 3 mps 740 mmHg 33%
    14:00 +35°C° 0 mm 2 mps 740 mmHg 34%
    15:00 +35°C° 0 mm 2 mps 740 mmHg 34%
    16:00 +35°C° 0 mm 2 mps 740 mmHg 34%
    17:00 +32°C° 0 mm 2 mps 740 mmHg 39%
    18:00 +30°C° 0 mm 2 mps 740 mmHg 44%
    19:00 +28°C° 0 mm 2 mps 740 mmHg 49%
    20:00 +27°C° 0 mm 2 mps 740 mmHg 53%
    21:00 +26°C° 0 mm 2 mps 740 mmHg 56%
    22:00 +25°C° 0 mm 2 mps 740 mmHg 59%
    23:00 +25°C° 0 mm 2 mps 740 mmHg 61%

    26 July, Friday

    Time Temperature Precipitation Wind Pressure Humidity
    00:00 +24°C° 0 mm 2 mps 740 mmHg 63%
    01:00 +24°C° 0 mm 2 mps 740 mmHg 65%
    02:00 +23°C° 0 mm 2 mps 740 mmHg 66%
    03:00 +23°C° 0 mm 2 mps 740 mmHg 67%
    04:00 +23°C° 0 mm 2 mps 739 mmHg 69%
    05:00 +24°C° 0 mm 2 mps 739 mmHg 64%
    06:00 +26°C° 0 mm 2 mps 739 mmHg 60%
    07:00 +28°C° 0 mm 1 mps 739 mmHg 55%
    08:00 +29°C° 0 mm 1 mps 739 mmHg 50%
    09:00 +31°C° 0 mm 1 mps 739 mmHg 45%
    10:00 +33°C° 0 mm 1 mps 739 mmHg 40%
    11:00 +34°C° 0 mm 2 mps 739 mmHg 38%
    12:00 +35°C° 0 mm 2 mps 739 mmHg 37%
    13:00 +36°C° 0 mm 2 mps 738 mmHg 35%
    14:00 +35°C° 0 mm 3 mps 738 mmHg 37%
    15:00 +35°C° 0 mm 3 mps 738 mmHg 38%
    16:00 +34°C° 0 mm 3 mps 737 mmHg 40%
    17:00 +31°C° 0 mm 2 mps 737 mmHg 45%
    18:00 +30°C° 0 mm 2 mps 737 mmHg 51%
    19:00 +28°C° 0 mm 1 mps 737 mmHg 57%
    20:00 +27°C° 0 mm 1 mps 737 mmHg 58%
    21:00 +27°C° 0 mm 1 mps 738 mmHg 60%
    22:00 +26°C° 0 mm 1 mps 738 mmHg 62%
    23:00 +26°C° 0 mm 1 mps 738 mmHg 63%

    27 July, Saturday

    Time Temperature Precipitation Wind Pressure Humidity
    00:00 +26°C° 0 mm 1 mps 738 mmHg 64%
    01:00 +25°C° 0 mm 1 mps 737 mmHg 65%
    02:00 +25°C° 0 mm 1 mps 737 mmHg 65%
    03:00 +25°C° 0 mm 1 mps 737 mmHg 65%
    04:00 +25°C° 0 mm 1 mps 737 mmHg 65%
    05:00 +26°C° 0 mm 1 mps 737 mmHg 61%
    06:00 +27°C° 0 mm 1 mps 737 mmHg 57%
    07:00 +28°C° 0 mm 1 mps 737 mmHg 53%
    08:00 +30°C° 0 mm 1 mps 737 mmHg 49%
    09:00 +32°C° 0 mm 1 mps 737 mmHg 44%
    10:00 +33°C° 0 mm 1 mps 737 mmHg 40%
    11:00 +34°C° 0 mm 1 mps 737 mmHg 39%
    12:00 +35°C° 0 mm 2 mps 737 mmHg 39%
    13:00 +35°C° 0 mm 3 mps 736 mmHg 38%
    14:00 +35°C° 0 mm 3 mps 736 mmHg 39%
    15:00 +35°C° 0 mm 3 mps 736 mmHg 40%
    16:00 +34°C° 0 mm 3 mps 736 mmHg 41%
    17:00 +32°C° 0 mm 2 mps 736 mmHg 47%
    18:00 +30°C° 0 mm 2 mps 736 mmHg 52%
    19:00 +28°C° 0 mm 1 mps 736 mmHg 58%
    20:00 +27°C° 0 mm 1 mps 737 mmHg 60%
    21:00 +27°C° 0 mm 1 mps 737 mmHg 62%
    22:00 +26°C° 0 mm 1 mps 737 mmHg 64%
    23:00 +26°C° 0 mm 1 mps 737 mmHg 62%
    Show more